Home > Weather > Kakata > Past weeks

Flag for Liberia Past Weather in Kakata, Liberia — Yesterday and Last 2 Weeks

Now
75 °F

Partly sunny.


Feels Like: 74 °F
Forecast: 72 / 81 °F
Wind: No wind

Location: Roberts Field

Current Time: Jun 26, 2016 at 8:24:26 AM

Latest Report: Jun 26, 2016 at 8:00 AM


Visibility: N/A

Pressure: N/A

Humidity: 94%

Dew Point: 73 °F

Location of KakataLocation

Past Weather in Kakata — Graph

°F

Kakata Temperature Yesterday

Maximum temperature yesterday: 81 °F (at 2:30 PM)
Minimum temperature yesterday: 73 °F (at 8:00 AM)
Average temperature yesterday: 77 °F

High & Low Weather Summary for the Past Weeks

 TemperatureHumidityPressure
High86 °F (Jun 12, 3:00 PM)100% (Jun 19, 12:00 AM)30.09 "Hg (Jun 19, 12:00 AM)
Low72 °F (Jun 16, 3:00 AM)70% (Jun 12, 1:30 PM)29.89 "Hg (Jun 21, 4:00 PM)
Average78 °F90%29.99 "Hg
* Reported Jun 11 5:00 AM — Jun 26 5:30 AM, Kakata, Weather by CustomWeather, © 2016

Note: Actual official high and low records may vary slightly from our data, if they occured in-between our weather recording intervals... More about our weather records

Advertising

Kakata Weather History for the Previous 24 Hours

Scroll right to see more
 ConditionsComfort  
Time TempWeatherWind HumidityBarometerVisibility
5:30 AM
Sun, Jun 26
75 °FLight rain. Passing clouds.No wind94%29.95 "Hg5 mi
5:00 AM75 °FLight rain. Passing clouds.No wind94%29.95 "Hg5 mi
4:30 AM75 °FLight rain. Passing clouds.No wind94%29.95 "Hg5 mi
4:00 AM75 °FLight rain. Passing clouds.No wind94%29.95 "Hg5 mi
3:30 AM75 °FLight rain. Passing clouds.No wind94%29.95 "Hg5 mi
11:30 PM
Sat, Jun 25
75 °FLight rain. Passing clouds.No wind94%29.98 "Hg5 mi
11:00 PM75 °FLight rain. Passing clouds.No wind94%29.98 "Hg5 mi
10:30 PM77 °FLight rain. Passing clouds.No wind94%29.98 "Hg4 mi
10:00 PM77 °FPassing clouds.No wind94%29.98 "HgN/A
9:30 PM77 °FPassing clouds.No wind94%29.98 "HgN/A
9:00 PM77 °FLight rain. Passing clouds.No wind94%29.98 "Hg5 mi
8:30 PM77 °FRain. Passing clouds.No wind94%29.95 "Hg4 mi
8:00 PM77 °FPassing clouds.No wind94%29.95 "HgN/A
7:30 PM77 °FLight rain. Partly sunny.No wind94%29.95 "Hg5 mi
7:00 PM77 °FLight rain. Partly sunny.No wind94%29.92 "Hg5 mi
6:20 PM77 °FLight rain. Cloudy.No wind94%29.92 "Hg5 mi
6:00 PM79 °FLight rain. Cloudy.No wind89%29.92 "Hg5 mi
5:30 PM81 °FPartly sunny.9 mph84%29.92 "HgN/A
5:00 PM81 °FPartly sunny.13 mph84%29.92 "HgN/A
4:30 PM81 °FPartly sunny.12 mph84%29.92 "HgN/A
4:00 PM81 °FPartly sunny.12 mph84%29.92 "HgN/A
3:30 PM81 °FPartly sunny.13 mph84%29.92 "HgN/A
3:00 PM81 °FPartly sunny.8 mph84%29.95 "HgN/A
2:30 PM81 °FPartly sunny.8 mph84%29.95 "HgN/A
2:00 PM79 °FPartly sunny.7 mph94%29.95 "Hg6 mi
1:30 PM79 °FPartly sunny.5 mph94%29.95 "HgN/A
1:00 PM77 °FLight rain. Partly sunny.No wind94%29.98 "Hg5 mi
12:30 PM77 °FLight rain. Partly sunny.No wind94%29.98 "Hg5 mi
12:00 PM77 °FLight rain. Partly sunny.No wind94%29.98 "Hg5 mi
11:30 AM77 °FLight rain. Broken clouds.No wind94%29.98 "Hg5 mi
11:00 AM75 °FRain. More clouds than sun.No wind94%30.01 "Hg4 mi
10:30 AM75 °FRain. Mostly cloudy.No wind94%30.01 "Hg3 mi
10:00 AM75 °FRain. Mostly cloudy.No wind94%30.01 "Hg2 mi
9:30 AM75 °FRain. Mostly cloudy.No wind94%29.98 "Hg4 mi
9:00 AM75 °FThunderstorms. Mostly cloudy.No wind94%29.98 "Hg5 mi
8:30 AM73 °FThunderstorms. Mostly cloudy.No wind100%29.98 "Hg2 mi
8:00 AM73 °FThunderstorms. Mostly cloudy.No wind100%29.98 "Hg2 mi
Weather by CustomWeather, © 2016

See weather overviewHow to use our weather pages